Modus | Home page

Přehled otevřených bezplatných on-line kurzů leden až květen 2023

Novinka

Využijte možnost bezplatně vzdělávat zaměstnance vašich členů !!!


 

název kurzu termín čas počet hodin
Strategický přístup k marketingu ve firmě a marketingový mix 10. 01., 17. 01. 2023 08:00 - 12:00 2 x 4
Metodika Service Management pro IT manažery 11. 01., 12. 01. 2023 08:00 - 16:30 2 x 8
Prevence syndromu vyhoření a psychohygiena 11. 01. / 18. 01. 2023 08:00 - 12:00 2 x 4
VBA kreativní řešení problémů 11. 01 ./12. 01. 2023 08:00 - 12:00 2 x 4
Nová legislativa pro HR v roce 2023 11. 01. / 8. 11. 2023 08:00 - 12:00 2 x 4
Začínáme s Power Bi 12. 01. 2023 08:00 - 16:30 1 x 8
Asertivní desatero v praxi 12. 01. / 19. 01. 2023 08:00 - 12:00 2 x 4
MS Excel pokročilí 13. 01. /20. 01. 2023 08:00 - 12:00 2 x 4
Jak nalézt a odstranit ztráty ve výrobním procesu 17. 01. /24. 01. 2023 08:00 - 12:00 2 x 4
Měření a řízení pracovního výkonu 18. 01. /09. 02. 2023 08:00 - 12:00 2 x 4
Microsoft PowerPoint pokročilé techniky 18. 01. /19. 01. 2023 08:00 - 12:00 2 x 4
KAIZEN - systematické zdokonalování 18. 01. /25. 01. 2023 08:00 - 12:00 2 x 4
Efektivní komunikace I 19. 01. /26. 01. 2023   08:00 - 12:00   2 x 4
Time management - Smart Aplikace 19. 01. /26. 01. 2023 08:00 - 12:00 2 x 4
Účinné vedení lidí pro Mistry a vedoucí výroby 20. 01. /27. 01. 2023 08:00 - 12:00 2 x 4
Diversity management 24. 01. /31. 01. 2023 08:00 - 12:00 2 x 4
Komunikační mix a zákazník jako cíl komunikace 24. 01. /07. 02. 2023 08:00 - 12:00 1 x 8
Asertivní desatero v praxi 25. 01. /01. 02. 2023 08:00 - 12:00 2 x 4
Obchodní dovednosti 25. 01. /31. 01. 2023 08:00 - 12:00 2 x 4
Odolnost vůči stresu 31. 01. /02. 02. 2023 08:00 - 12:00 2 x 4
Udržitelná kvalita ve výrobním procesu jako konkurenční výhoda 01. 02. /08. 02. 2023 08:00 - 12:00 2 x 4
Efektivní komunikace II 02. 02. /08. 02. 2023 08:00 - 12:00 2 x 4
Lean Management 09. 02. /23. 02. 2023 08:00 - 12:00 2 x 4
LinkedIn a jak na něj 09. 02. 2023 08:00 - 16:30 2 x 4
Projektové řízení 10. 02. /24. 02. 2023 08:00 - 12:00 2 x 4
HR Marketing 14. 02. /21. 02. 2023 08:00 - 12:00 2 x 4
Efektivně fungující logistika jako konkurenční výhoda výrobního podniku 15. 02. /22. 02. 2023 08:00 - 12:00 2 x 4
Jak zvládnout konflikt a komunikační krizi 01 .03. /03. 03. 2023 08:00 - 12:00 2 x 4
Metrologie 02 .03. /09. 03. 2023 08:00 - 12:00 2 x 4
Hodnocení zaměstnanců jako nástroj k jejich úspěšnosti 22. 03. /28. 03. 2023 08:00 - 12:00 2 x 4
Asertivní desatero v praxi 23. 03. /29. 03. 2023 08:00 - 12:00 2 x 4
MS Excel pro středně  pokročilé 23. 03. /30. 03. 2023 08:00 - 12:00 2 x 4
Projektové řízení 31. 03. /05. 04. 2023 08:00 - 16:30 2 x 8
Úspěšná  vyjednávání i pod tlakem: Harvardská metoda 06. 04. /13. 04. 2023 08:00 - 12:00 2 x 4
Manažerské hříchy vůči sobě 20. 04. /26. 04. 2023 08:00 - 12:00 2x4
Manažerské hříchy vůči ostatním 04. 05. /10. 05. 2023 08:00 - 12:00 2 x 4

 

Jak to funguje?

Jedná se o školení v rámci vzdělávacího projektu, kde se mohou školit jen společnosti a firmy dle zákona o obchodních společnostech. Školení jsou vždy dle zákona hrazeny z podpory de minimis dané firmy. Pokud ještě nejste zapojeni do projektu, určitě kontaktujte naši projektovou manažerku Lucku. Projde s Vámi poměrně jednoduchý proces žádosti o schválení podpory de minimis. To zabere několik dní.  Od okamžiku schválení pak už můžete kdykoliv v průběhu trvání projektu zařadit jakéhokoliv zaměstnance bezplatně do kurzu či školení bez další složité administrativy.

 

Co je potřeba doložit od účastníků: Kopie pracovních smluv (či dohod o pracovní činnosti) a vyplněný monitorovací list účastníka.

 

Bohužel nemůžeme bezplatně školit zaměstnance škol, obcí nebo neziskových organizací.

 

Kontakt: Lucie Foldynová, tel. +420 773 032 220, email: foldynova@nca.cz

 

 

 
Přidáno: 18.01.2023 9:26:17
Přidáno: 18.01.2023 9:26:07